Weather History for Sparta, WI

Change the Weather History Date:

Friday, October 28, 2011

  Actual Average Record
Temperature  
Mean Temperature 36 °F -  
Max Temperature 82 °F 55 °F 82 °F (2011)
Min Temperature 20 °F 32 °F 11 °F (1976)
Degree Days  
Heating Degree Days 29    
Moisture  
Dew Point 26 °F    
Average Humidity 77    
Maximum Humidity 100    
Minimum Humidity 36    
Precipitation  
Precipitation 0.00 in - - ()
Sea Level Pressure  
Sea Level Pressure 30.06 in    
Wind  
Wind Speed 1 mph (WSW)    
Max Wind Speed 9 mph    
Max Gust Speed -    
Visibility 10 miles    
Events      
Averages and records for this station are not official NWS values.
T = Trace of Precipitation, MM = Missing Value Source: NWS Daily Summary

Daily Weather History Graph

Daily Weather History Graph

Search for Another Location

Airport:

Trip Planner

Search our weather history database for the weather conditions in past years. The results will help you decide how hot, cold, wet, or windy it might be!

Date:

Astronomy

Oct. 28, 2011 Rise Set
Actual Time 7:33 AM CDT 5:59 PM CDT
Civil Twilight 7:03 AM CDT 6:28 PM CDT
Nautical Twilight 6:30 AM CDT 7:02 PM CDT
Astronomical Twilight 5:56 AM CDT 7:36 PM CDT
Moon 9:55 AM CDT (10/28) 7:15 PM CDT (10/28)
Length of Visible Light 11h 24m
Length of Day
10h 25m
Waxing Crescent, 5% of the Moon is Illuminated
Oct 28
Waxing Crescent
Nov 2
First Quarter
Nov 10
Full
Nov 18
Last Quarter
Nov 25
New

Hourly Weather History & Observations

Time (CDT) Temp. Dew Point Humidity Pressure Visibility Wind Dir Wind Speed Gust Speed Precip Events Conditions
12:15 AM 26.4 °F 26.4 °F 100% 30.11 in 10.0 mi Calm Calm - N/A   Clear
12:35 AM 26.2 °F 25.9 °F 99% 30.12 in 10.0 mi Calm Calm - N/A   Clear
12:55 AM 26.2 °F 25.7 °F 98% 30.12 in 10.0 mi Calm Calm - N/A   Clear
1:15 AM 25.7 °F 25.5 °F 99% 30.13 in 10.0 mi Calm Calm - N/A   Clear
1:35 AM 24.8 °F 24.4 °F 99% 30.12 in 10.0 mi Calm Calm - N/A   Clear
1:55 AM 24.6 °F 23.9 °F 97% 30.13 in 10.0 mi Calm Calm - N/A   Clear
2:15 AM 24.3 °F 23.4 °F 96% 30.13 in 10.0 mi Calm Calm - N/A   Clear
2:35 AM 23.7 °F 22.8 °F 96% 30.13 in 10.0 mi Calm Calm - N/A   Clear
2:55 AM 23.2 °F 22.5 °F 97% 30.13 in 10.0 mi Calm Calm - N/A   Clear
3:15 AM 23.0 °F 22.1 °F 96% 30.12 in 10.0 mi Calm Calm - N/A   Clear
3:35 AM 22.8 °F 22.1 °F 97% 30.12 in 10.0 mi Calm Calm - N/A   Clear
3:55 AM 22.1 °F 21.2 °F 96% 30.12 in 10.0 mi Calm Calm - N/A   Clear
4:15 AM 21.9 °F 21.2 °F 97% 30.12 in 10.0 mi Calm Calm - N/A   Clear
4:35 AM 21.4 °F 20.5 °F 96% 30.12 in 10.0 mi Calm Calm - N/A   Clear
4:55 AM 21.0 °F 20.3 °F 97% 30.12 in 10.0 mi Calm Calm - N/A   Clear
5:15 AM 20.8 °F 20.1 °F 97% 30.12 in 10.0 mi Calm Calm - N/A   Mostly Cloudy
5:35 AM 21.2 °F 20.1 °F 96% 30.12 in 10.0 mi Calm Calm - N/A   Overcast
5:55 AM 21.9 °F 21.0 °F 96% 30.12 in 10.0 mi Calm Calm - N/A   Overcast
8:15 AM 22.8 °F 22.1 °F 97% 30.11 in 10.0 mi Calm Calm - N/A   Clear
8:35 AM 24.4 °F 23.5 °F 96% 30.11 in 10.0 mi Calm Calm - N/A   Clear
8:55 AM 26.1 °F 25.2 °F 96% 30.10 in 10.0 mi Calm Calm - N/A   Clear
9:15 AM 27.9 °F 27.1 °F 97% 30.10 in 10.0 mi Calm Calm - N/A   Clear
9:35 AM 29.8 °F 29.1 °F 97% 30.09 in 10.0 mi Calm Calm - N/A   Clear
10:15 AM 35.1 °F 33.3 °F 93% 30.08 in 10.0 mi Calm Calm - N/A   Scattered Clouds
10:35 AM 37.9 °F 35.2 °F 90% 30.08 in 10.0 mi Calm Calm - N/A   Scattered Clouds
10:55 AM 41.5 °F 36.0 °F 81% 30.07 in 10.0 mi Calm Calm - N/A   Scattered Clouds
11:15 AM 46.8 °F 34.3 °F 62% 30.06 in 10.0 mi South 9.2 mph - N/A   Mostly Cloudy
11:35 AM 49.6 °F 29.7 °F 46% 30.05 in 10.0 mi South 9.2 mph - N/A   Mostly Cloudy
11:55 AM 50.4 °F 28.4 °F 43% 30.05 in 10.0 mi South 8.1 mph - N/A   Mostly Cloudy
12:35 PM 50.9 °F 28.2 °F 42% 30.03 in 10.0 mi South 9.2 mph - N/A   Mostly Cloudy
12:55 PM 51.4 °F 27.9 °F 40% 30.02 in 10.0 mi South 6.9 mph - N/A   Overcast
1:15 PM 52.7 °F 28.0 °F 39% 30.01 in 10.0 mi South 9.2 mph - N/A   Mostly Cloudy
1:35 PM 52.9 °F 26.2 °F 36% 30.00 in 10.0 mi WSW 4.6 mph - N/A   Overcast
1:55 PM 52.2 °F 25.7 °F 36% 30.00 in 10.0 mi West 8.1 mph - N/A   Overcast
2:15 PM 52.0 °F 26.6 °F 37% 30.00 in 10.0 mi West 8.1 mph - N/A   Overcast
2:35 PM 51.3 °F 27.1 °F 39% 29.99 in 10.0 mi WNW 6.9 mph - N/A   Overcast
2:55 PM 51.3 °F 27.7 °F 40% 29.99 in 10.0 mi WSW 4.6 mph - N/A   Overcast
3:15 PM 52.0 °F 28.0 °F 40% 29.98 in 10.0 mi WSW 6.9 mph - N/A   Overcast
3:35 PM 52.3 °F 27.9 °F 39% 29.98 in 10.0 mi WSW 6.9 mph - N/A   Overcast
3:55 PM 52.0 °F 27.0 °F 38% 29.98 in 10.0 mi SW 3.5 mph - N/A   Overcast
4:15 PM 51.8 °F 27.7 °F 39% 29.99 in 10.0 mi WNW 5.8 mph - N/A   Overcast
4:35 PM 51.1 °F 28.6 °F 42% 29.99 in 10.0 mi NW 4.6 mph - N/A   Overcast
4:55 PM 51.1 °F 29.1 °F 43% 29.99 in 10.0 mi West 5.8 mph - N/A   Mostly Cloudy
5:35 PM 48.9 °F 29.5 °F 47% 29.99 in 10.0 mi Calm Calm - N/A   Clear
5:55 PM 46.8 °F 30.2 °F 53% 29.99 in 10.0 mi West 3.5 mph - N/A   Scattered Clouds
6:15 PM 44.4 °F 31.3 °F 60% 30.00 in 10.0 mi Calm Calm - N/A   Mostly Cloudy
7:55 PM 34.0 °F 29.5 °F 84% 30.02 in 10.0 mi Calm Calm - N/A   Clear
8:15 PM 32.9 °F 28.9 °F 85% 30.02 in 10.0 mi Calm Calm - N/A   Clear
8:35 PM 31.6 °F 28.4 °F 88% 30.02 in 10.0 mi Calm Calm - N/A   Clear
8:55 PM 30.4 °F 28.2 °F 92% 30.02 in 10.0 mi Calm Calm - N/A   Clear
9:15 PM 29.7 °F 27.7 °F 92% 30.02 in 10.0 mi Calm Calm - N/A   Clear
9:35 PM 28.9 °F 26.8 °F 92% 30.02 in 10.0 mi Calm Calm - N/A   Clear
9:55 PM 28.0 °F 27.0 °F 96% 30.02 in 10.0 mi Calm Calm - N/A   Scattered Clouds
10:15 PM 27.0 °F 25.7 °F 95% 30.02 in 10.0 mi Calm Calm - N/A   Scattered Clouds
10:35 PM 27.5 °F 25.9 °F 94% 30.02 in 10.0 mi Calm Calm - N/A   Scattered Clouds
10:55 PM 27.1 °F 25.5 °F 94% 30.02 in 10.0 mi Calm Calm - N/A   Mostly Cloudy
11:15 PM 26.6 °F 25.2 °F 94% 30.02 in 10.0 mi Calm Calm - N/A   Scattered Clouds
11:35 PM 26.1 °F 25.0 °F 96% 30.01 in 10.0 mi Calm Calm - N/A   Clear
11:55 PM 25.9 °F 25.2 °F 97% 30.01 in 10.0 mi Calm Calm - N/A   Clear